Time,TemperatureF,DewpointF,PressureIn,WindDirection,WindDirectionDegrees,WindSpeedMPH,WindSpeedGustMPH,Humidity,HourlyPrecipIn,Conditions,Clouds,dailyrainin,SoftwareType,DateUTC
2013-08-06 00:06:00,70.6,69.0,29.91,SSW,211,6.0,7.0,94,0.00,,,0.00,weatherlink.com 1.10,2013-08-06 05:06:00,
2013-08-06 00:22:00,71.0,69.0,29.91,SSW,209,4.0,8.0,94,0.00,,,0.00,weatherlink.com 1.10,2013-08-06 05:22:00,
2013-08-06 00:37:00,71.5,70.0,29.91,SSW,192,7.0,10.0,94,0.00,,,0.00,weatherlink.com 1.10,2013-08-06 05:37:00,
2013-08-06 00:52:00,71.4,70.0,29.89,SSW,196,6.0,9.0,94,0.00,,,0.00,weatherlink.com 1.10,2013-08-06 05:52:00,
2013-08-06 01:07:00,71.7,70.0,29.88,SSW,202,5.0,10.0,94,0.00,,,0.00,weatherlink.com 1.10,2013-08-06 06:07:00,
2013-08-06 01:22:00,72.8,70.0,29.87,South,182,6.0,13.0,92,0.00,,,0.00,weatherlink.com 1.10,2013-08-06 06:22:00,
2013-08-06 01:37:00,73.3,71.0,29.84,SSW,206,8.0,15.0,91,0.00,,,0.00,weatherlink.com 1.10,2013-08-06 06:37:00,
2013-08-06 01:52:00,73.4,71.0,29.83,SW,227,7.0,15.0,91,0.00,,,0.00,weatherlink.com 1.10,2013-08-06 06:52:00,
2013-08-06 02:07:00,73.6,71.0,29.85,SSW,200,7.0,12.0,91,0.00,,,0.00,weatherlink.com 1.10,2013-08-06 07:07:00,
2013-08-06 02:22:00,73.7,71.0,29.88,SSW,194,6.0,9.0,91,0.00,,,0.00,weatherlink.com 1.10,2013-08-06 07:22:00,
2013-08-06 02:37:00,73.6,71.0,29.86,SW,215,6.0,11.0,92,0.00,,,0.00,weatherlink.com 1.10,2013-08-06 07:37:00,
2013-08-06 02:52:00,73.2,71.0,29.84,SSE,159,5.0,9.0,93,0.00,,,0.00,weatherlink.com 1.10,2013-08-06 07:52:00,
2013-08-06 03:07:00,72.8,71.0,29.85,South,171,5.0,9.0,93,0.00,,,0.00,weatherlink.com 1.10,2013-08-06 08:07:00,
2013-08-06 03:22:00,72.7,71.0,29.87,South,182,4.0,11.0,93,0.00,,,0.00,weatherlink.com 1.10,2013-08-06 08:22:00,
2013-08-06 03:37:00,72.8,71.0,29.88,SSW,196,6.0,10.0,93,0.00,,,0.00,weatherlink.com 1.10,2013-08-06 08:37:00,
2013-08-06 03:52:00,74.8,72.0,29.91,West,275,22.0,31.0,90,0.00,,,0.00,weatherlink.com 1.10,2013-08-06 08:52:00,
2013-08-06 04:07:00,72.9,71.0,29.89,WSW,258,10.0,14.0,94,0.18,,,0.18,weatherlink.com 1.10,2013-08-06 09:07:00,
2013-08-06 04:22:00,72.7,70.0,29.90,West,277,14.0,17.0,92,0.19,,,0.19,weatherlink.com 1.10,2013-08-06 09:22:00,
2013-08-06 04:37:00,72.3,70.0,29.93,West,275,4.0,14.0,92,0.19,,,0.19,weatherlink.com 1.10,2013-08-06 09:37:00,
2013-08-06 04:52:00,72.1,70.0,29.92,West,268,2.0,8.0,93,0.19,,,0.19,weatherlink.com 1.10,2013-08-06 09:52:00,
2013-08-06 05:07:00,71.9,70.0,29.92,West,273,9.0,9.0,93,0.03,,,0.21,weatherlink.com 1.10,2013-08-06 10:07:00,
2013-08-06 05:22:00,-999.0,-99.9,29.93,West,267,0.0,5.0,93,0.04,,,0.23,weatherlink.com 1.10,2013-08-06 10:22:00,
2013-08-06 05:37:00,71.2,69.0,29.94,NNE,17,3.0,6.0,93,0.05,,,0.24,weatherlink.com 1.10,2013-08-06 10:37:00,
2013-08-06 05:52:00,70.9,69.0,29.95,ENE,61,4.0,7.0,94,0.06,,,0.26,weatherlink.com 1.10,2013-08-06 10:52:00,
2013-08-06 06:08:00,70.3,69.0,29.95,ENE,77,8.0,9.0,95,0.07,,,0.28,weatherlink.com 1.10,2013-08-06 11:08:00,
2013-08-06 06:22:00,70.2,69.0,29.94,ENE,65,7.0,11.0,96,0.06,,,0.29,weatherlink.com 1.10,2013-08-06 11:22:00,
2013-08-06 06:37:00,70.1,69.0,29.94,East,80,6.0,11.0,96,0.06,,,0.30,weatherlink.com 1.10,2013-08-06 11:37:00,
2013-08-06 06:52:00,70.0,69.0,29.94,East,91,6.0,11.0,97,0.05,,,0.31,weatherlink.com 1.10,2013-08-06 11:52:00,
2013-08-06 07:07:00,69.7,69.0,29.93,East,92,6.0,13.0,96,0.04,,,0.32,weatherlink.com 1.10,2013-08-06 12:07:00,
2013-08-06 07:22:00,69.0,68.0,29.93,ESE,108,10.0,12.0,96,0.03,,,0.32,weatherlink.com 1.10,2013-08-06 12:22:00,
2013-08-06 07:37:00,68.3,67.0,29.94,ESE,106,9.0,14.0,96,0.02,,,0.32,weatherlink.com 1.10,2013-08-06 12:37:00,
2013-08-06 07:53:00,68.0,67.0,29.94,ESE,107,8.0,14.0,96,0.01,,,0.32,weatherlink.com 1.10,2013-08-06 12:53:00,
2013-08-06 08:08:00,67.9,67.0,29.93,SSE,153,7.0,8.0,97,0.02,,,0.34,weatherlink.com 1.10,2013-08-06 13:08:00,
2013-08-06 08:23:00,68.6,68.0,29.97,WSW,242,14.0,18.0,97,0.04,,,0.36,weatherlink.com 1.10,2013-08-06 13:23:00,
2013-08-06 08:38:00,68.5,68.0,29.95,ESE,103,10.0,11.0,97,0.12,,,0.44,weatherlink.com 1.10,2013-08-06 13:38:00,
2013-08-06 08:53:00,68.7,68.0,29.94,ESE,111,10.0,10.0,97,0.14,,,0.46,weatherlink.com 1.10,2013-08-06 13:53:00,
2013-08-06 09:08:00,68.8,68.0,29.95,East,100,3.0,9.0,97,0.12,,,0.46,weatherlink.com 1.10,2013-08-06 14:08:00,
2013-08-06 09:23:00,69.0,68.0,29.95,East,79,3.0,9.0,97,0.10,,,0.46,weatherlink.com 1.10,2013-08-06 14:23:00,
2013-08-06 09:38:00,69.3,69.0,29.95,East,86,3.0,7.0,97,0.02,,,0.46,weatherlink.com 1.10,2013-08-06 14:38:00,
2013-08-06 09:53:00,69.7,69.0,29.95,ESE,103,2.0,8.0,97,0.00,,,0.46,weatherlink.com 1.10,2013-08-06 14:53:00,
2013-08-06 10:08:00,70.4,70.0,29.94,SE,135,3.0,8.0,98,0.00,,,0.46,weatherlink.com 1.10,2013-08-06 15:08:00,
2013-08-06 10:23:00,71.3,71.0,29.94,SSE,150,5.0,6.0,98,0.00,,,0.46,weatherlink.com 1.10,2013-08-06 15:23:00,
2013-08-06 10:38:00,72.1,71.0,29.94,South,179,2.0,9.0,97,0.00,,,0.46,weatherlink.com 1.10,2013-08-06 15:38:00,
2013-08-06 10:53:00,72.9,72.0,29.95,SSE,167,1.0,8.0,96,0.00,,,0.46,weatherlink.com 1.10,2013-08-06 15:53:00,
2013-08-06 11:08:00,73.5,72.0,29.95,SSW,210,6.0,8.0,95,0.00,,,0.46,weatherlink.com 1.10,2013-08-06 16:08:00,
2013-08-06 11:23:00,73.7,72.0,29.95,SSW,192,4.0,10.0,95,0.01,,,0.47,weatherlink.com 1.10,2013-08-06 16:23:00,
2013-08-06 11:38:00,73.8,72.0,29.95,SSW,205,4.0,10.0,94,0.01,,,0.47,weatherlink.com 1.10,2013-08-06 16:38:00,
2013-08-06 11:53:00,73.5,72.0,29.95,South,188,4.0,10.0,94,0.01,,,0.47,weatherlink.com 1.10,2013-08-06 16:53:00,
2013-08-06 12:08:00,73.7,72.0,29.95,SSW,194,7.0,12.0,94,0.01,,,0.47,weatherlink.com 1.10,2013-08-06 17:08:00,
2013-08-06 12:23:00,73.7,71.0,29.95,SSW,209,6.0,13.0,92,0.00,,,0.47,weatherlink.com 1.10,2013-08-06 17:23:00,
2013-08-06 12:38:00,74.3,72.0,29.95,SSE,161,5.0,11.0,93,0.00,,,0.47,weatherlink.com 1.10,2013-08-06 17:38:00,
2013-08-06 12:53:00,75.4,73.0,29.95,SSE,166,1.0,12.0,91,0.00,,,0.47,weatherlink.com 1.10,2013-08-06 17:53:00,
2013-08-06 13:08:00,75.7,73.0,29.94,South,169,5.0,13.0,91,0.00,,,0.47,weatherlink.com 1.10,2013-08-06 18:08:00,
2013-08-06 13:23:00,74.6,72.0,29.93,South,188,2.0,13.0,90,0.00,,,0.47,weatherlink.com 1.10,2013-08-06 18:23:00,
2013-08-06 13:38:00,73.9,71.0,29.93,SSW,200,5.0,11.0,91,0.00,,,0.47,weatherlink.com 1.10,2013-08-06 18:38:00,
2013-08-06 13:53:00,74.4,72.0,29.92,SSE,157,5.0,14.0,92,0.00,,,0.47,weatherlink.com 1.10,2013-08-06 18:53:00,
2013-08-06 14:08:00,73.9,71.0,29.92,SSW,202,7.0,14.0,91,0.00,,,0.47,weatherlink.com 1.10,2013-08-06 19:08:00,
2013-08-06 14:23:00,75.3,73.0,29.91,SSW,206,3.0,12.0,91,0.00,,,0.47,weatherlink.com 1.10,2013-08-06 19:23:00,
2013-08-06 14:38:00,76.2,73.0,29.92,SSW,210,7.0,15.0,88,0.00,,,0.47,weatherlink.com 1.10,2013-08-06 19:38:00,
2013-08-06 14:53:00,78.0,74.0,29.91,West,265,6.0,15.0,87,0.00,,,0.47,weatherlink.com 1.10,2013-08-06 19:53:00,
2013-08-06 15:08:00,78.5,73.0,29.91,SSE,149,5.0,14.0,84,0.00,,,0.47,weatherlink.com 1.10,2013-08-06 20:08:00,
2013-08-06 15:23:00,77.3,73.0,29.90,SSW,201,4.0,10.0,86,0.00,,,0.47,weatherlink.com 1.10,2013-08-06 20:23:00,
2013-08-06 15:38:00,76.4,73.0,29.90,SW,234,4.0,9.0,88,0.00,,,0.47,weatherlink.com 1.10,2013-08-06 20:38:00,
2013-08-06 15:53:00,76.8,73.0,29.90,WSW,239,1.0,10.0,88,0.00,,,0.47,weatherlink.com 1.10,2013-08-06 20:53:00,
2013-08-06 16:08:00,76.5,73.0,29.90,SSW,200,1.0,8.0,89,0.00,,,0.47,weatherlink.com 1.10,2013-08-06 21:08:00,
2013-08-06 16:23:00,76.4,73.0,29.90,SSE,151,8.0,11.0,90,0.00,,,0.47,weatherlink.com 1.10,2013-08-06 21:23:00,
2013-08-06 16:38:00,76.1,73.0,29.89,South,184,5.0,8.0,90,0.00,,,0.47,weatherlink.com 1.10,2013-08-06 21:38:00,
2013-08-06 16:53:00,76.0,73.0,29.89,SSW,200,1.0,7.0,91,0.00,,,0.47,weatherlink.com 1.10,2013-08-06 21:53:00,
2013-08-06 17:08:00,77.1,74.0,29.88,SSW,210,5.0,9.0,90,0.00,,,0.47,weatherlink.com 1.10,2013-08-06 22:08:00,
2013-08-06 17:38:00,80.2,75.0,29.86,SE,139,3.0,8.0,84,0.00,,,0.47,weatherlink.com 1.10,2013-08-06 22:38:00,
2013-08-06 17:53:00,81.0,76.0,29.86,South,188,6.0,8.0,84,0.00,,,0.47,weatherlink.com 1.10,2013-08-06 22:53:00,
2013-08-06 18:08:00,80.0,75.0,29.86,SW,222,1.0,11.0,85,0.00,,,0.47,weatherlink.com 1.10,2013-08-06 23:08:00,
2013-08-06 18:23:00,79.9,75.0,29.87,SW,221,2.0,8.0,85,0.00,,,0.47,weatherlink.com 1.10,2013-08-06 23:23:00,
2013-08-06 18:38:00,80.5,76.0,29.86,South,169,3.0,9.0,85,0.00,,,0.47,weatherlink.com 1.10,2013-08-06 23:38:00,
2013-08-06 18:53:00,80.7,76.0,29.86,South,184,1.0,7.0,85,0.00,,,0.47,weatherlink.com 1.10,2013-08-06 23:53:00,
2013-08-06 19:08:00,80.3,76.0,29.86,SSE,167,4.0,7.0,85,0.00,,,0.47,weatherlink.com 1.10,2013-08-07 00:08:00,
2013-08-06 19:23:00,79.3,76.0,29.86,SE,133,3.0,4.0,88,0.00,,,0.47,weatherlink.com 1.10,2013-08-07 00:23:00,
2013-08-06 19:38:00,78.5,75.0,29.86,SSE,166,2.0,5.0,89,0.00,,,0.47,weatherlink.com 1.10,2013-08-07 00:38:00,
2013-08-06 19:53:00,78.1,75.0,29.86,ESE,107,2.0,7.0,90,0.00,,,0.47,weatherlink.com 1.10,2013-08-07 00:53:00,
2013-08-06 20:08:00,77.3,75.0,29.86,SE,132,4.0,7.0,91,0.00,,,0.47,weatherlink.com 1.10,2013-08-07 01:08:00,
2013-08-06 20:23:00,76.7,74.0,29.86,SSE,155,4.0,6.0,92,0.00,,,0.47,weatherlink.com 1.10,2013-08-07 01:23:00,
2013-08-06 20:38:00,76.2,74.0,29.86,SSE,150,4.0,7.0,93,0.00,,,0.47,weatherlink.com 1.10,2013-08-07 01:38:00,
2013-08-06 20:53:00,75.7,74.0,29.86,SSE,152,2.0,7.0,94,0.00,,,0.47,weatherlink.com 1.10,2013-08-07 01:53:00,
2013-08-06 21:08:00,75.5,74.0,29.86,SSE,159,3.0,8.0,95,0.00,,,0.47,weatherlink.com 1.10,2013-08-07 02:08:00,
2013-08-06 21:23:00,75.4,74.0,29.86,SSE,155,2.0,6.0,95,0.00,,,0.47,weatherlink.com 1.10,2013-08-07 02:23:00,
2013-08-06 21:38:00,75.5,74.0,29.87,SE,124,2.0,9.0,95,0.00,,,0.47,weatherlink.com 1.10,2013-08-07 02:38:00,
2013-08-06 21:53:00,75.5,74.0,29.87,ESE,114,3.0,8.0,96,0.00,,,0.47,weatherlink.com 1.10,2013-08-07 02:53:00,
2013-08-06 22:08:00,75.3,74.0,29.87,SE,128,3.0,5.0,96,0.00,,,0.47,weatherlink.com 1.10,2013-08-07 03:08:00,
2013-08-06 22:23:00,75.2,74.0,29.88,SSE,158,7.0,7.0,96,0.00,,,0.47,weatherlink.com 1.10,2013-08-07 03:23:00,
2013-08-06 22:38:00,75.2,74.0,29.88,ESE,121,2.0,8.0,97,0.00,,,0.47,weatherlink.com 1.10,2013-08-07 03:38:00,
2013-08-06 22:53:00,75.2,74.0,29.88,SE,139,1.0,7.0,97,0.00,,,0.47,weatherlink.com 1.10,2013-08-07 03:53:00,
2013-08-06 23:08:00,75.4,75.0,29.89,SSE,150,3.0,6.0,97,0.00,,,0.47,weatherlink.com 1.10,2013-08-07 04:08:00,
2013-08-06 23:23:00,75.5,75.0,29.89,ESE,117,3.0,6.0,97,0.00,,,0.47,weatherlink.com 1.10,2013-08-07 04:23:00,
2013-08-06 23:38:00,75.5,75.0,29.88,SE,137,2.0,8.0,97,0.00,,,0.47,weatherlink.com 1.10,2013-08-07 04:38:00,
2013-08-06 23:53:00,75.6,75.0,29.89,SE,127,5.0,7.0,97,0.00,,,0.47,weatherlink.com 1.10,2013-08-07 04:53:00,